www.pogodaiklimat.ru

Погода и климат >> Архив погоды >> Малайзия >> Kuantan


ПОГОДА в Kuantan

  • Прогноз погоды в Kuantan
  • Монитор погоды в Kuantan
  • Климат города

АРХИВ ПОГОДЫ в Kuantan

Время (UTC), дата Ветер
(напр.,м/с)
 
Видим.   Явления Облачность Т
(С)
Тd
(С)
f
(%)
Тe
(С)
Тes
(С)
Комфортность P
(гПа)
Po
(гПа)
Тmin
(С)
Tmax
(С)
R
(мм)
R24
(мм)
S
(см)
15 19.06 СЗ 2 7000 м слабый дождь {гроза} 9/5 180 м
[Sc Ac lent Cs]
+23.9 +23.0 95 +32 +32 очень
душно
1011.1 1009.3
18 19.06 штиль 0 9000 м зарница {дождь} 9/3 500 м
[Sc Ac lent Cs]
+24.5 +23.7 95 +33 +33 очень
душно
1010.3 1008.5 2
21 19.06 СЗ 2 8000 м гроза, ливневой дождь 9/5 240 м
[Cb cap Ac lent Cs]
+23.9 +23.4 97 +32 +32 очень
душно
1009.5 1007.7
00 20.06 штиль 0 10 км слабый дождь 8/4 180 м
[Sc Ac lent Cs]
+24.3 +23.8 97 +33 +34 очень
душно
1010.9 1009.1 +23.0 15
03 20.06 штиль 0 15 км мгла 8/4 540 м
[Cb calv Ac cast Ci ing]
+29.0 +25.7 82 +43 +51 опасность
перегрева
1010.4 1008.6
06 20.06 Ю 4 15 км мгла 8/3 600 м
[Cu hum Ac trans Ci fib]
+32.3 +27.0 74 +50 +57 опасность
перегрева
1008.1 1006.4 0.4
09 20.06 ЮВ 5 18 км мгла 8/3 600 м
[Cb calv Ac trans Ci sp]
+32.0 +26.2 71 +48 +49 опасность
перегрева
1006.7 1004.9
12 20.06 СВ 2 12 км зарница 9/3 500 м
[Cb cap Ac trans Ci sp]
+29.4 +26.1 82 +44 +44 опасность
перегрева
1008.3 1006.5 +32.9
15 20.06 СЗ 1 12 км гроза, ливневой дождь 9/5 300 м
[Cb cap Ac trans Ci sp]
+24.1 +22.2 89 +31 +31 очень
душно
1010.9 1009.1
18 20.06 штиль 0 12 км слабый дождь {гроза} 9/3 750 м
[Sc Ac trans Ci sp]
+24.1 +23.2 95 +32 +32 очень
душно
1009.5 1007.7
21 20.06 СЗ 2 10 км дымка {дождь} 9/3 240 м
[Sc Ac trans Ci sp]
+24.1 +23.4 96 +32 +32 очень
душно
1009.1 1007.3
00 21.06 штиль 0 14 км мгла 9/1 600 м
[Cu hum Ac As Ci sp]
+24.8 +23.9 95 +34 +35 очень
душно
1010.4 1008.6 +23.8 0.4
03 21.06 Ю 2 18 км мгла 8/3 600 м
[Cu hum Ac trans Ci sp]
+30.4 +25.8 76 +45 +51 опасность
перегрева
1010.8 1009.0
06 21.06 ЮВ 2 18 км мгла 8/4 500 м
[Cb cap Ac trans Ci sp]
+32.5 +25.8 68 +48 +55 опасность
перегрева
1008.6 1006.8
09 21.06 В 3 7000 м гроза, ливневой дождь 9/6 480 м
[Cb cap Ac trans Cs]
+24.3 +22.7 91 +32 +33 очень
душно
1007.5 1005.7
12 21.06 Ю 3 7000 м гроза, ливневой дождь 8/5 60 м
[Cb cap Ac trans Cs]
+23.0 +22.0 94 +31 +31 очень
душно
1008.3 1006.5 +33.5 40
15 21.06 штиль 0 10 км дымка 8/4 500 м
[Cb cap Ac trans Cs]
+23.3 +22.4 95 +32 +32 очень
душно
1012.2 1010.4
18 21.06 Ю 1 10 км дымка 8/4 720 м
[Cb cap Ac trans Cs]
+23.7 +22.9 95 +31 +31 очень
душно
1010.3 1008.5
21 21.06 штиль 0 9000 м дымка 9 баллов +23.7 +23.2 97 +32 +32 очень
душно
1009.1 1007.3
00 22.06 Ю 1 10 км дымка 9/4 180 м
[Sc Ac lent Cs]
+24.2 +23.4 95 +32 +33 очень
душно
1010.2 1008.4 +22.9 40
03 22.06 Ю 2 16 км мгла 9/3 570 м
[Cu med, cong Ac trans Ci sp]
+29.7 +25.9 80 +44 +50 опасность
перегрева
1011.9 1010.1
06 22.06 В 2 16 км мгла 9/4 540 м
[Cu med, cong Ac trans Ci sp]
+31.3 +25.9 73 +47 +53 опасность
перегрева
1009.3 1007.5
09 22.06 Ю 2 17 км мгла 8/4 500 м
[Cu Sc Ac trans Ci fib]
+32.8 +26.1 68 +49 +51 опасность
перегрева
1007.0 1005.2
12 22.06 ЮВ 2 10 км гроза, ливневой дождь 9/5 480 м
[Cb cap Ac trans Ci sp]
+24.6 +23.3 92 +33 +33 очень
душно
1008.9 1007.1 +32.8
15 22.06 ЮВ 1 10 км в посл. час гроза {метель} 8/4 500 м
[Cb cap Ac trans Ci sp]
+24.2 +23.0 93 +32 +32 очень
душно
1011.4 1009.6
21 22.06 штиль 0 8000 м дымка 9/3 120 м
[Sc Ac lent Ci sp]
+24.0 +23.3 96 +32 +32 очень
душно
1009.2 1007.4
00 23.06 штиль 0 12 км мгла 9/3 240 м
[Sc Ac trans Cs]
+24.6 +23.7 95 +33 +34 очень
душно
1010.3 1008.5 +23.7
03 23.06 Ю 2 18 км мгла 9/1 750 м
[Sc Ac trans Cs]
+28.6 +25.4 83 +42 +50 опасность
перегрева
1010.9 1009.1
06 23.06 Ю 3 18 км мгла 9/1 600 м
[Cu hum Ac trans Ci sp]
+30.7 +25.5 74 +45 +54 опасность
перегрева
1008.2 1006.4
09 23.06 ЮВ 3 18 км мгла 9/3 570 м
[Cu hum Ac lent Ci sp]
+31.0 +26.5 77 +47 +50 опасность
перегрева
1006.6 1004.9
12 23.06 С 1 12 км гроза без осадков 9/4 480 м
[Cb cap Ac trans Ci sp]
+28.9 +25.9 84 +43 +43 опасность
перегрева
1007.5 1005.7 +31.6
15 23.06 штиль 0 8000 м слабый ливневой дождь, в посл. час гроза 9/5 480 м
[Cb cap Ac trans Cs]
+25.5 +24.5 94 +36 +36 очень
душно
1010.2 1008.4
18 23.06 штиль 0 10 км мгла {гроза, дождь} 9/3 720 м
[Sc Ac trans Cs]
+25.0 +24.2 95 +34 +34 очень
душно
1009.6 1007.8 0.6
21 23.06 Ю 2 10 км мгла 8/1 720 м
[Sc Ac trans Ci fib]
+25.0 +24.2 95 +34 +34 очень
душно
1008.5 1006.7
00 24.06 СЗ 1 10 км мгла 8/1 540 м
[Cu hum Ac cuf Ci sp]
+24.6 +23.8 95 +33 +34 очень
душно
1009.1 1007.3 +24.4 0.6
03 24.06 З 1 15 км мгла 8/3 540 м
[Cu hum Ac cuf Ci fib]
+29.2 +26.0 83 +44 +52 опасность
перегрева
1009.4 1007.6
06 24.06 С 2 18 км мгла 8/4 540 м
[Cu hum Ac cuf Ci fib]
+30.6 +26.5 79 +47 +55 опасность
перегрева
1008.0 1006.2
09 24.06 СВ 3 14 км мгла 8/4 500 м
[Cb cap Ac trans Ci fib]
+31.2 +25.9 73 +46 +48 опасность
перегрева
1006.1 1004.3
12 24.06 В 1 15 км зарница 9/4 500 м
[Cb cap Ac trans Ci sp]
+28.3 +25.5 85 +42 +42 опасность
перегрева
1008.2 1006.4 +31.7
15 24.06 СЗ 1 12 км зарница 9/4 500 м
[Cb cap Ac trans Ci sp]
+26.4 +25.2 93 +38 +38 очень
душно
1009.8 1008.0
18 24.06 СЗ 1 12 км дымка 9/4 300 м
[Sc Ac trans Ci sp]
+25.3 +24.7 96 +36 +36 очень
душно
1009.4 1007.6
21 24.06 штиль 0 8000 м дымка 9/3 240 м
[St Ac trans Ci sp]
+24.9 +24.4 97 +35 +35 очень
душно
1008.5 1006.7
00 25.06 штиль 0 9000 м дымка 9/4 300 м
[Cb cap Ac trans Ci sp]
+25.2 +24.4 95 +35 +36 очень
душно
1009.4 1007.6 +24.6
03 25.06 В 2 17 км мгла 8/3 600 м
[Cu hum Ac trans Ci fib]
+30.1 +26.3 80 +46 +53 опасность
перегрева
1010.0 1008.2
06 25.06 В 2 18 км мгла 8/4 540 м
[Cu med, cong Ac trans Ci sp]
+31.9 +26.8 74 +49 +57 опасность
перегрева
1007.5 1005.8
09 25.06 В 3 16 км гроза без осадков 9/5 480 м
[Cb cap Ac trans Ci sp]
+31.1 +26.6 77 +48 +49 опасность
перегрева
1006.0 1004.3
12 25.06 С 1 10 км гроза, ливневой дождь 9/5 480 м
[Cb cap Ac lent Cs]
+27.9 +26.1 90 +42 +42 опасность
перегрева
1008.0 1006.2 +32.8
15 25.06 СВ 1 10 км мгла 9/4 500 м
[Cb cap Ac lent Cs]
+26.6 +25.6 94 +39 +39 очень
душно
1010.9 1009.1
18 25.06 Ю 3 10 км в посл. час дождь 9/5 150 м
[Cb cap Ac lent Ci sp]
+25.2 +24.3 95 +35 +35 очень
душно
1010.6 1008.8
21 25.06 Ю 2 10 км мгла 9/5 150 м
[Cb cap Ac trans Ci sp]
+24.9 +23.2 90 +33 +33 очень
душно
1009.8 1008.0
00 26.06 СЗ 1 12 км мгла 9/3 240 м
[Sc Ac trans Ci sp]
+24.6 +23.5 94 +33 +34 очень
душно
1010.7 1008.9 +24.1
03 26.06 штиль 0 18 км мгла 9/1 660 м
[Cu hum Ac trans Ci sp]
+28.3 +25.5 85 +42 +51 опасность
перегрева
1011.1 1009.3
06 26.06 В 2 18 км мгла 9/3 570 м
[Sc Ac trans Ci sp]
+30.8 +25.4 73 +45 +53 опасность
перегрева
1009.6 1007.8
09 26.06 В 3 18 км осадки на расстоянии 9/5 480 м
[Cb cap Ac trans Ci sp]
+30.6 +25.1 73 +44 +46 опасность
перегрева
1007.7 1005.9

 

Местоположение метеостанции Kuantan (Малайзия): широта 3.78 долгота 103.21 высота над уровнем моря 16 м.

В архиве по умолчанию представлена погода в Kuantan за последнюю неделю. Архивные данные за месяц целиком и за предыдущие месяцы, начиная с января 2011 года, Вы можете получить, выбрав интересующий диапазон дат из раскрывающегося списка и нажав кнопку "Ввод!".

Внимание! Время в таблицах - всемирное. Для получения местного времени необходимо прибавить поправку, которая в Kuantan равна 7 ч.

Смотрите также архив погоды в соседних городах и на ближайших метеорологических станциях:

Погода в Kuala Trengganu (Малайзия) (178 км)
Погода в Mersing (Малайзия) (198 км)
Погода в Kuala Lumpur (Малайзия) (198 км)
Погода в Malacca (Малайзия) (199 км)
Погода в Kuala Lumpur Int Airport (Малайзия) (205 км)
Погода в Cameron Highlands (Малайзия) (218 км)
Погода в Johore Bharu / Senai (Малайзия) (245 км)
Погода в Ipoh (Малайзия) (250 км)
Погода в Singapore (Сингапур) (281 км)
Погода в Sitiawan (Малайзия) (283 км)

Пояснения к столбцам:

Ветер - указаны скорость ветра в м/с - средняя за 10 мин, порывы в срок и между сроками (в фигурных скобках) и направление, откуда дует ветер: С - северный, СВ - северо-восточный, В - восточный, ЮВ - юго-восточный, Ю - южный, ЮЗ - юго-западный, З - западный, СЗ - северо-западный.
Видимость - горизонтальная дальность видимости в метрах или километрах. При видимости от 1 до 10 км при отсутствии осадков обычно наблюдается дымка, при ухудшении видимости до 1 км и менее - туман. В сухую погоду видимость может ухудшаться дымом, пылью или мглою.
Явления - указаны атмосферные явления, наблюдавшиеся в срок или в последний час перед сроком; фигурными скобками обозначены явления, наблюдавшиеся между сроками (за 1-3 часа до срока); квадратными скобками обозначены град или гололедные отложения с указанием их диаметра в мм.
Облачность - указаны через наклонную черту общая и нижняя облачность в баллах и высота нижней границы облаков в метрах; квадратными скобками обозначены формы облаков: Ci - перистые, Cs - перисто-слоистые, Cc - перисто-кучевые, Ac - высококучевые, As - высокослоистые, Sc - слоисто-кучевые, Ns - слоисто-дождевые, Cu - кучевые, Cb - кучево-дождевые. Подробнее классификацию облаков см. в Атласе облаков (PDF).
T - Температура воздуха - температура, измеренная на высоте 2 м над землей.
Td - Температура точки росы - температура, при понижении до которой содержащийся в воздухе водяной пар достигнет насыщения.
f - Относительная влажность воздуха - влажноcть воздуха, измеренная на высоте 2 м над землей.
Te - Эффективная температура - температура, которую ощущает одетый по сезону человек в тени. Характеристика душности погоды. При расчете учитывается влияние влажности воздуха и скорости ветра на теплоощущения человека.
Tes - Эффективная температура на солнце - температура, которую ощущает человек, с поправкой на солнечный нагрев. Характеристика знойности погоды. Зависит от высоты солнца над горизонтом, облачности и скорости ветра. Ночью, в пасмурную погоду, а также при ветре 12 м/с и более поправка равна нулю.
P - Атмосферное давление - приведенное к уровню моря атмосферное давление.
Po - Атмосферное давление - измеренное на уровне метеостанции атмосферное давление.
Tmin - Минимальная температура - минимум температуры воздуха на высоте 2 м над землей.
Tmax - Максимальная температура - максимум температуры воздуха на высоте 2 м над землей.
R - Количество осадков - Количество выпавших осадков за период времени, мм. При наведении курсора мыши на число - период времени, за который выпало указанное количество осадков.
R24 - Количество осадков - Количество выпавших осадков за 24 часа, мм.
S - Снежный покров - Высота снежного покрова, см. При наведении курсора мыши на число - состояние снежного покрова и степень покрытия местности в баллах.